sat.trackr.live / text

‹ back to catalog

STARLINK-2673

NORAD 48649 · 2021-044M

PAYLOAD ACTIVE UNKNOWN

§ Identity

Operator
Country
US
Launch date
2021-05-26
Launch site
AFETR
Launch vehicle
Mass (kg)
RCS (m²)

Purposes: comms

External: N2YO · Heavens-Above · Gunter

§ Orbital elements

Epoch: 2026-09-19T18:50:57.164640Z

Period
94.01 min
Inclination
53.1602°
Eccentricity
0.0001226
Mean motion
15.31701049 rev/d
Perigee alt
469.9 km
Apogee alt
471.6 km
Semi-major
6,848.9 km
B*
-2.4309e-6
RAAN
290.5326°
Arg perigee
90.4481°
Mean anomaly
269.6661°
Rev number
29,356

§ Raw data

STARLINK-26731 48649U 21044M   26262.78538385 -.00000441  00000+0 -24309-5 0  99902 48649  53.1602 290.5326 0001226  90.4481 269.6661 15.31701049293566

JSON: /api/v1/satellites/48649 · /tle

For live sub-satellite position, see the globe view (requires WebGL).

§ Visibility from observer

Set your observer location to see the next 7 days of passes ≥ 10°. The values pass through the URL so the page stays shareable.

No JS? Fill the form by hand. The geolocation button needs JavaScript.